Beale Air Force Base, CA

6:42 PM PDT on September 26, 2016 (GMT -0700)
Beale Air Force Base

Weather History for KBAB - May, 2013

Change the Weather History Date:

Tuesday, May 14, 2013

  Actual Average Record
Temperature  
Mean Temperature 74 °F -  
Max Temperature 92 °F 77 °F 96 °F (2006)
Min Temperature 57 °F 53 °F 46 °F (1999)
Cooling Degree Days 9    
Growing Degree Days 24 (Base 50)    
Moisture  
Dew Point 54 °F    
Average Humidity 53    
Maximum Humidity 88    
Minimum Humidity 25    
Precipitation  
Precipitation 0.00 in - - ()
Sea Level Pressure  
Sea Level Pressure 30.07 in    
Wind  
Wind Speed 5 mph (SSE)    
Max Wind Speed 16 mph    
Max Gust Speed -    
Visibility 10 miles    
Events      
Averages and records for this station are not official NWS values.
T = Trace of Precipitation, MM = Missing Value Source: NWS Daily Summary

Daily Weather History Graph

Daily Weather History Graph

Search for Another Location

Airport or City:

Trip Planner

Search our weather history database for the weather conditions in past years. The results will help you decide how hot, cold, wet, or windy it might be!

Date:

Astronomy

May. 14, 2013 Rise Set
Actual Time 5:53 AM PDT 8:11 PM PDT
Civil Twilight 5:23 AM PDT 8:41 PM PDT
Nautical Twilight 4:46 AM PDT 9:18 PM PDT
Astronomical Twilight 4:05 AM PDT 9:59 PM PDT
Moon 9:37 AM PDT (5/14) No Moon Set
Length of Visible Light 15h 18m
Length of Day
14h 18m
Waxing Crescent, 19% of the Moon is Illuminated
May 14
Waxing Crescent
May 17
First Quarter
May 24
Full
May 31
Last Quarter
Jun 8
New

Hourly Weather History & Observations

Time (PDT) Temp. Heat Index Dew Point Humidity Pressure Visibility Wind Dir Wind Speed Gust Speed Precip Events Conditions
12:58 AM 65.1 °F - 53.4 °F 66% 30.11 in 10.0 mi Calm Calm - N/A   Clear
1:58 AM 64.4 °F - 54.9 °F 71% 30.10 in 10.0 mi SE 4.6 mph - N/A   Clear
2:58 AM 63.5 °F - 53.4 °F 70% 30.08 in 10.0 mi ESE 6.9 mph - N/A   Clear
3:58 AM 57.0 °F - 52.7 °F 85% 30.08 in 10.0 mi WSW 3.5 mph - N/A   Clear
4:58 AM 59.4 °F - 54.9 °F 85% 30.08 in 10.0 mi NNE 4.6 mph - N/A   Clear
5:58 AM 58.8 °F - 53.1 °F 81% 30.08 in 10.0 mi NNE 3.5 mph - N/A   Clear
6:58 AM 59.2 °F - 55.6 °F 88% 30.10 in 10.0 mi Calm Calm - N/A   Clear
7:58 AM 66.6 °F - 56.3 °F 69% 30.09 in 10.0 mi East 4.6 mph - N/A   Clear
8:58 AM 73.2 °F - 55.4 °F 54% 30.09 in 10.0 mi Variable 3.5 mph - N/A   Clear
9:58 AM 75.4 °F - 57.9 °F 54% 30.09 in 10.0 mi Variable 2.3 mph - N/A   Clear
10:58 AM 79.2 °F - 56.3 °F 45% 30.09 in 10.0 mi West 4.6 mph - N/A   Clear
11:58 AM 81.3 °F 81.6 °F 58.6 °F 46% 30.10 in 10.0 mi South 9.2 mph - N/A   Clear
12:58 PM 84.0 °F 83.2 °F 56.8 °F 39% 30.09 in 10.0 mi South 6.9 mph - N/A   Clear
1:58 PM 86.9 °F 85.3 °F 55.8 °F 34% 30.07 in 10.0 mi Variable 6.9 mph - N/A   Clear
2:58 PM 88.9 °F - 51.1 °F 27% 30.05 in 10.0 mi Variable 2.3 mph - N/A   Clear
3:58 PM 91.6 °F - 51.4 °F 25% 30.04 in 10.0 mi South 8.1 mph - N/A   Clear
4:58 PM 91.9 °F - 50.9 °F 25% 30.04 in 3.0 mi South 10.4 mph - N/A   Haze
5:58 PM 89.1 °F 87.3 °F 55.6 °F 32% 30.04 in 10.0 mi South 16.1 mph - N/A   Clear
6:58 PM 84.7 °F 83.6 °F 56.1 °F 37% 30.03 in 10.0 mi South 12.7 mph - N/A   Clear
7:58 PM 79.7 °F - 56.8 °F 45% 30.04 in 7.0 mi South 10.4 mph - N/A   Clear
8:58 PM 75.0 °F - 53.4 °F 47% 30.06 in 10.0 mi SE 9.2 mph - N/A   Clear
9:58 PM 72.5 °F - 51.4 °F 47% 30.07 in 10.0 mi SE 8.1 mph - N/A   Clear
10:58 PM 67.8 °F - 51.6 °F 56% 30.08 in 10.0 mi SSE 10.4 mph - N/A   Clear
11:58 PM 67.5 °F - 49.8 °F 53% 30.10 in 9.0 mi SSE 10.4 mph - N/A   Clear